Location: Bernay
(48.6766°N, 2.9386°E)
Time: 22:52:45
(UTC+00:00)

Cosmos 1656 - Visible Passes

Search period start: 18 April 2026 00:00
Search period end: 28 April 2026 00:00
Orbit: 798 x 846 km, 71.1° (Epoch: 18 April)

Date Brightness Start Highest point End Pass type
(mag) Time Alt. Az. Time Alt. Az. Time Alt. Az.
18 Apr 5.2 00:24:39 10° NW 00:27:19 23° WNW 00:27:19 23° WNW visible
18 Apr 6.0 20:37:43 10° N 20:39:44 12° NNE 20:41:45 10° NE visible
18 Apr 4.3 22:19:41 10° NNW 22:24:53 43° NE 22:25:18 42° ENE visible
19 Apr 5.0 00:03:29 10° NW 00:06:41 28° WNW 00:06:41 28° WNW visible
19 Apr 6.0 20:17:08 10° NNE 20:18:30 11° NNE 20:19:52 10° NE visible
19 Apr 4.5 21:58:42 10° NNW 22:03:47 38° NE 22:04:41 35° ENE visible
19 Apr 4.7 23:42:20 10° NW 23:46:04 35° WNW 23:46:04 35° WNW visible
20 Apr 4.7 21:37:44 10° NNW 21:42:40 33° NE 21:44:05 29° E visible
20 Apr 4.4 23:21:13 10° NW 23:25:28 43° W 23:25:28 43° W visible
21 Apr 4.9 21:16:46 10° NNW 21:21:33 30° NE 21:23:30 24° E visible
21 Apr 4.0 23:00:07 10° NW 23:04:54 53° W 23:04:54 53° W visible
22 Apr 5.0 20:55:49 10° N 21:00:24 26° NE 21:02:57 19° E visible
22 Apr 3.7 22:39:02 10° NNW 22:44:21 64° WSW 22:44:21 64° WSW visible
23 Apr 5.2 20:34:53 10° N 20:39:15 24° NE 20:42:25 15° E visible
23 Apr 3.5 22:17:58 10° NNW 22:23:26 75° WSW 22:23:49 71° SSW visible
24 Apr 5.9 00:04:08 10° WNW 00:05:12 11° W 00:05:12 11° W visible
24 Apr 5.3 20:13:57 10° N 20:18:05 21° NE 20:21:55 11° E visible
24 Apr 3.5 21:56:55 10° NNW 22:02:25 86° WSW 22:03:19 64° SSE visible
24 Apr 5.7 23:42:23 10° WNW 23:44:42 14° W 23:44:42 14° W visible
25 Apr 5.4 19:53:02 10° N 19:56:55 19° NE 20:00:48 10° E visible
25 Apr 3.5 21:35:53 10° NNW 21:41:23 83° ENE 21:42:50 51° SE visible
25 Apr 5.6 23:20:53 10° WNW 23:24:14 17° W 23:24:14 17° W visible
26 Apr 5.5 19:32:09 10° N 19:35:44 17° NE 19:39:19 10° E visible
26 Apr 3.6 21:14:51 10° NNW 21:20:20 72° ENE 21:22:23 39° SE visible
26 Apr 5.4 22:59:30 10° NW 23:03:21 20° W 23:03:47 20° WSW visible
27 Apr 3.8 20:53:50 10° NNW 20:59:16 63° ENE 21:01:58 30° SE visible
27 Apr 5.2 22:38:12 10° NW 22:42:25 23° WSW 22:43:22 22° WSW visible
